When you browse on this site, cookies collect data to enhance your experience and personalize the content and advertising you see.
Visit our Privacy Policy to learn more. By continuing to use the site, you agree to this use of cookies and data.
  • In Lithuania
  • List of Countries
  • For 7 days
  • Water Temperature
  • Weather Map
  • Weather Widgets
  • user-avatar
    Login

    Hourly Weather Malanje

    Today, 1 June, Monday

    Time Temperature Precipitation Wind Pressure Humidity
    00:00 +20°C° 0 mm 1 mps 666 mmHg 53%
    01:00 +19°C° 0 mm 1 mps 666 mmHg 59%
    02:00 +19°C° 0 mm 1 mps 666 mmHg 61%
    03:00 +18°C° 0 mm 1 mps 666 mmHg 63%
    04:00 +18°C° 0 mm 1 mps 665 mmHg 65%
    05:00 +17°C° 0 mm 2 mps 666 mmHg 66%
    06:00 +17°C° 0 mm 2 mps 666 mmHg 66%
    07:00 +17°C° 0 mm 2 mps 667 mmHg 65%
    08:00 +20°C° 0 mm 3 mps 668 mmHg 57%
    09:00 +24°C° 0 mm 3 mps 668 mmHg 49%
    10:00 +27°C° 0 mm 4 mps 668 mmHg 41%
    11:00 +29°C° 0 mm 3 mps 668 mmHg 37%
    12:00 +30°C° 0 mm 3 mps 668 mmHg 33%
    13:00 +31°C° 0 mm 2 mps 668 mmHg 29%
    14:00 +31°C° 0 mm 2 mps 667 mmHg 29%
    15:00 +31°C° 0 mm 2 mps 667 mmHg 29%
    16:00 +31°C° 0 mm 1 mps 666 mmHg 29%
    17:00 +28°C° 0 mm 1 mps 666 mmHg 34%
    18:00 +26°C° 0 mm 1 mps 666 mmHg 39%
    19:00 +22°C° 0 mm 0 mps 667 mmHg 44%
    20:00 +21°C° 0 mm 0 mps 667 mmHg 44%
    21:00 +21°C° 0 mm 0 mps 667 mmHg 45%
    22:00 +21°C° 0 mm 0 mps 667 mmHg 45%
    23:00 +20°C° 0 mm 0 mps 667 mmHg 47%

    Tomorrow, 2 June, Tuesday

    Time Temperature Precipitation Wind Pressure Humidity
    00:00 +22°C° 0 mm 1 mps 667 mmHg 48%
    01:00 +21°C° 0 mm 1 mps 667 mmHg 50%
    02:00 +21°C° 0 mm 1 mps 666 mmHg 52%
    03:00 +20°C° 0 mm 1 mps 666 mmHg 54%
    04:00 +19°C° 0 mm 1 mps 666 mmHg 57%
    05:00 +20°C° 0 mm 1 mps 666 mmHg 57%
    06:00 +20°C° 0 mm 1 mps 667 mmHg 57%
    07:00 +20°C° 0 mm 1 mps 668 mmHg 57%
    08:00 +23°C° 0 mm 2 mps 668 mmHg 51%
    09:00 +25°C° 0 mm 2 mps 668 mmHg 44%
    10:00 +28°C° 0 mm 3 mps 669 mmHg 38%
    11:00 +29°C° 0 mm 3 mps 668 mmHg 34%
    12:00 +30°C° 0 mm 3 mps 668 mmHg 31%
    13:00 +32°C° 0 mm 2 mps 668 mmHg 27%
    14:00 +31°C° 0 mm 2 mps 667 mmHg 28%
    15:00 +31°C° 0 mm 2 mps 666 mmHg 29%
    16:00 +30°C° 0 mm 2 mps 666 mmHg 30%
    17:00 +28°C° 0 mm 2 mps 666 mmHg 35%
    18:00 +25°C° 0 mm 1 mps 665 mmHg 40%
    19:00 +23°C° 0 mm 1 mps 665 mmHg 45%
    20:00 +20°C° 0 mm 0 mps 665 mmHg 47%
    21:00 +20°C° 0 mm 0 mps 665 mmHg 48%
    22:00 +19°C° 0 mm 0 mps 666 mmHg 49%
    23:00 +18°C° 0 mm 0 mps 665 mmHg 50%

    Day after tomorrow, 3 June, Wednesday

    Time Temperature Precipitation Wind Pressure Humidity
    00:00 +20°C° 0 mm 1 mps 665 mmHg 51%
    01:00 +20°C° 0 mm 1 mps 665 mmHg 52%
    02:00 +19°C° 0 mm 1 mps 665 mmHg 55%
    03:00 +18°C° 0 mm 1 mps 665 mmHg 57%
    04:00 +16°C° 0 mm 1 mps 664 mmHg 59%
    05:00 +16°C° 0 mm 1 mps 665 mmHg 59%
    06:00 +18°C° 0 mm 1 mps 665 mmHg 59%
    07:00 +18°C° 0 mm 1 mps 666 mmHg 58%
    08:00 +21°C° 0 mm 1 mps 666 mmHg 51%
    09:00 +24°C° 0 mm 2 mps 667 mmHg 44%
    10:00 +27°C° 0 mm 2 mps 668 mmHg 37%
    11:00 +29°C° 0 mm 2 mps 668 mmHg 34%
    12:00 +31°C° 0 mm 1 mps 668 mmHg 31%
    13:00 +33°C° 0 mm 1 mps 667 mmHg 27%
    14:00 +32°C° 0 mm 1 mps 667 mmHg 28%
    15:00 +32°C° 0 mm 1 mps 666 mmHg 29%
    16:00 +31°C° 0 mm 1 mps 665 mmHg 29%
    17:00 +29°C° 0 mm 1 mps 665 mmHg 34%
    18:00 +27°C° 0 mm 1 mps 665 mmHg 38%
    19:00 +23°C° 0 mm 0 mps 665 mmHg 43%
    20:00 +24°C° 0 mm 1 mps 666 mmHg 47%
    21:00 +23°C° 0 mm 1 mps 666 mmHg 51%
    22:00 +22°C° 0 mm 1 mps 666 mmHg 54%
    23:00 +21°C° 0 mm 1 mps 665 mmHg 65%

    4 June, Thursday

    Time Temperature Precipitation Wind Pressure Humidity
    00:00 +20°C° 0 mm 1 mps 665 mmHg 76%
    01:00 +18°C° 0 mm 2 mps 665 mmHg 87%
    02:00 +18°C° 0 mm 1 mps 665 mmHg 91%
    03:00 +18°C° 0 mm 1 mps 664 mmHg 94%
    04:00 +18°C° 0 mm 1 mps 664 mmHg 98%
    05:00 +18°C° 0 mm 1 mps 665 mmHg 96%
    06:00 +19°C° 0 mm 1 mps 666 mmHg 93%
    07:00 +19°C° 0 mm 1 mps 666 mmHg 91%
    08:00 +22°C° 0 mm 1 mps 667 mmHg 75%
    09:00 +25°C° 0 mm 1 mps 668 mmHg 59%
    10:00 +28°C° 0 mm 2 mps 668 mmHg 43%
    11:00 +29°C° 0 mm 2 mps 668 mmHg 38%
    12:00 +31°C° 0 mm 2 mps 668 mmHg 32%
    13:00 +32°C° 0 mm 2 mps 667 mmHg 27%
    14:00 +32°C° 0 mm 2 mps 667 mmHg 28%
    15:00 +32°C° 0 mm 1 mps 666 mmHg 28%
    16:00 +31°C° 0 mm 1 mps 666 mmHg 29%
    17:00 +29°C° 0 mm 1 mps 666 mmHg 34%
    18:00 +26°C° 0 mm 1 mps 666 mmHg 39%
    19:00 +22°C° 0 mm 0 mps 665 mmHg 44%
    20:00 +21°C° 0 mm 0 mps 666 mmHg 46%
    21:00 +23°C° 0 mm 1 mps 666 mmHg 48%
    22:00 +22°C° 0 mm 1 mps 666 mmHg 50%
    23:00 +21°C° 0 mm 1 mps 666 mmHg 53%

    5 June, Friday

    Time Temperature Precipitation Wind Pressure Humidity
    00:00 +21°C° 0 mm 1 mps 666 mmHg 56%
    01:00 +20°C° 0 mm 1 mps 666 mmHg 59%
    02:00 +19°C° 0 mm 1 mps 665 mmHg 63%
    03:00 +19°C° 0 mm 1 mps 665 mmHg 68%
    04:00 +18°C° 0 mm 1 mps 665 mmHg 72%
    05:00 +18°C° 0 mm 1 mps 666 mmHg 69%
    06:00 +19°C° 0 mm 1 mps 666 mmHg 67%
    07:00 +19°C° 0 mm 1 mps 667 mmHg 64%
    08:00 +21°C° 0 mm 2 mps 667 mmHg 55%
    09:00 +25°C° 0 mm 2 mps 668 mmHg 45%
    10:00 +28°C° 0 mm 2 mps 669 mmHg 35%
    11:00 +30°C° 0 mm 2 mps 668 mmHg 32%
    12:00 +31°C° 0 mm 2 mps 668 mmHg 29%
    13:00 +34°C° 0 mm 2 mps 668 mmHg 26%
    14:00 +34°C° 0 mm 2 mps 667 mmHg 26%
    15:00 +32°C° 0 mm 2 mps 667 mmHg 27%
    16:00 +32°C° 0 mm 2 mps 666 mmHg 27%
    17:00 +29°C° 0 mm 1 mps 666 mmHg 32%
    18:00 +27°C° 0 mm 1 mps 666 mmHg 38%
    19:00 +24°C° 0 mm 1 mps 666 mmHg 43%
    20:00 +21°C° 0 mm 0 mps 666 mmHg 45%
    21:00 +20°C° 0 mm 0 mps 666 mmHg 47%
    22:00 +20°C° 0 mm 0 mps 666 mmHg 48%
    23:00 +21°C° 0 mm 1 mps 666 mmHg 50%

    6 June, Saturday

    Time Temperature Precipitation Wind Pressure Humidity
    00:00 +20°C° 0 mm 1 mps 666 mmHg 51%
    01:00 +20°C° 0 mm 1 mps 666 mmHg 53%
    02:00 +19°C° 0 mm 1 mps 665 mmHg 54%
    03:00 +18°C° 0 mm 1 mps 665 mmHg 55%
    04:00 +18°C° 0 mm 1 mps 665 mmHg 56%
    05:00 +17°C° 0 mm 2 mps 666 mmHg 55%
    06:00 +17°C° 0 mm 2 mps 666 mmHg 54%
    07:00 +17°C° 0 mm 2 mps 667 mmHg 53%
    08:00 +20°C° 0 mm 3 mps 667 mmHg 45%
    09:00 +25°C° 0 mm 3 mps 668 mmHg 37%
    10:00 +28°C° 0 mm 4 mps 669 mmHg 30%
    11:00 +29°C° 0 mm 4 mps 668 mmHg 27%
    12:00 +31°C° 0 mm 3 mps 668 mmHg 25%
    13:00 +33°C° 0 mm 3 mps 668 mmHg 22%
    14:00 +33°C° 0 mm 3 mps 667 mmHg 22%
    15:00 +32°C° 0 mm 2 mps 667 mmHg 23%
    16:00 +31°C° 0 mm 2 mps 666 mmHg 23%
    17:00 +29°C° 0 mm 2 mps 666 mmHg 28%
    18:00 +26°C° 0 mm 2 mps 666 mmHg 33%
    19:00 +23°C° 0 mm 1 mps 666 mmHg 38%
    20:00 +22°C° 0 mm 1 mps 666 mmHg 37%
    21:00 +22°C° 0 mm 1 mps 666 mmHg 37%
    22:00 +21°C° 0 mm 1 mps 666 mmHg 36%
    23:00 +20°C° 0 mm 1 mps 666 mmHg 38%
    Show more